Regional Weather Roundup
Issued by NWS Wakefield, VA

Home | Current Version | Previous Version | Text Only | Print | Product List | Glossary On
Versions: 1 2 3 4 5 6 7 8 9 10 11 12 13 14 15 16 17 18 19 20 21 22 23 24 25 26 27
000
ASUS41 KAKQ 010515
RWRAKQ

REGIONAL WEATHER ROUNDUP
NATIONAL WEATHER SERVICE WAKEFIELD VA
100 AM EDT WED JUN 01 2016

Note: "fair" indicates few or no clouds below 12,000 feet with no
significant weather and/or obstructions to visibility. * = Denotes
station may not report precipitation (e.g., rain,snow,etc.),
thunder or fog.

VAZ042-051-052>054-056-010600-
NORTHERN VIRGINIA

CITY           SKY/WX    TMP DP  RH WIND       PRES   REMARKS
WASH NATIONAL  FAIR      73  70  90 S3        29.99S
DULLES         FAIR      67  65  93 CALM      30.00S
FORT BELVOIR   FAIR      65  64  95 CALM      29.99S FOG
QUANTICO       FAIR      71  68  90 CALM      29.99F
FREDERICKSBRG* FAIR      68  68 100 CALM      29.99S
STAFFORD*      FAIR      64  63  96 CALM      30.03S FOG
WARRENTON      FAIR      65  60  85 CALM      29.99F HAZE
CULPEPER*      FAIR      66  66 100 CALM      30.01S
MANASSAS*      FAIR      66  66 100 CALM      29.99F
LEESBURG*      FAIR      68  64  88 CALM      30.01S
WINCHESTER     FAIR      61  59  94 CALM      30.01S
FRONT ROYAL*   FAIR      63  61  94 CALM      30.00F
LURAY*         FAIR      63  63 100 CALM      30.03S
$$

VAZ048-049-060>072-079>083-010600-
CENTRAL AND SOUTH CENTRAL VIRGINIA

CITY           SKY/WX    TMP DP  RH WIND       PRES   REMARKS
RICHMOND       FAIR      69  66  90 CALM      30.00R
CHESTERFIELD*    N/A    N/A N/A N/A MISG        N/A
PETERSBURG*    FAIR      70  70 100 CALM      30.00S
HANOVER        FAIR      67  65  93 CALM      30.01S
TAPPAHANNOCK*  FAIR      68  68 100 CALM      30.00S
QUINTON*       FAIR      67  67  97 CALM      29.99S
CHARLOTTSVILLE FAIR      66  61  84 NW3       30.01S
GORDONSVILLE*  FAIR      66  66 100 CALM      30.00F
ORANGE*        FAIR      68  68 100 CALM      30.02F
LOUISA*        FAIR      66  66 100 CALM      30.00F FOG
BUMPASS*       FAIR      67  67  99 CALM      30.00F
FARMVILLE*       N/A     67  67 100 CALM      29.99F FOG
CREWE*         FAIR      65  65 100 CALM      30.00S
FORT PICKETT*  NOT AVBL
CHASE CITY*    FAIR      68  66  94 CALM      30.01R
CLARKSVILLE*   FAIR      68  68 100 CALM      30.00R
SOUTH HILL*    FAIR      68  67  99 CALM      30.05S
LAWRENCEVILLE* FAIR      69  68  97 CALM      30.00S
EMPORIA*         N/A     64  64 100 E3        30.00F
$$

VAZ088>098-010600-
SOUTHEAST VIRGINIA

CITY           SKY/WX    TMP DP  RH WIND       PRES   REMARKS
NORFOLK        FAIR      70  66  87 CALM      29.98F
VIRGINIA BEACH FAIR      73  66  78 CALM      29.97S
NORFOLK NAVAL  FAIR      68  66  93 CALM      30.00S
WEST POINT*    FAIR      68  67  97 CALM      30.00F
SALUDA*        FAIR      68  68 100 CALM      29.98F
NEWPORT NEWS   FAIR      67  66  97 NE3       29.99S
LANGLEY AFB    FAIR      69  68  94 NE2       29.98F
FORT EUSTIS    FAIR      69  47  46 CALM      29.97S
WILLIAMSBURG*  FAIR      70  68  94 CALM      29.99F
HR EXEC AP*      N/A    N/A N/A N/A CALM      30.00S
FRANKLIN*      FAIR      66  65  96 CALM      29.99F
US460-WAKEFLD  FAIR      66  64  93 CALM      29.99F
$$

VAZ020-022-025-037-045-010600-
WEST CENTRAL AND SOUTHWEST VIRGINIA

CITY           SKY/WX    TMP DP  RH WIND       PRES   REMARKS
STAUNTON*      FAIR      62  60  92 CALM      30.06S
WAYNESBORO*    FAIR      65  62  91 CALM      30.05S
HOT SPRINGS VA FAIR      64  64 100 SE5       30.14S
LYNCHBURG      FAIR      66  65  96 CALM      30.04R
DANVILLE       FAIR      67  65  93 CALM      30.00S
SOUTH BOSTON*  FAIR      67  65  95 CALM      30.00S
MARTINSVILLE   FAIR      63  62  97 CALM      30.05S FOG
ROANOKE        FAIR      71  65  81 CALM      30.05S
BLACKSBURG     FAIR      65  64  96 CALM      30.10S
DUBLIN*        FAIR      67  66  97 CALM      30.09S
MARION*        MOCLDY    63  62  96 CALM      30.12F FOG
HILLSVILLE*    MOCLDY    65  64  96 E3        30.09S
RICHLANDS*     CLOUDY    67  55  64 CALM      30.08S
WISE*          FAIR      68  54  60 CALM      30.09S
ABINGDON*      FAIR      66  62  85 E5        30.06S
$$

MDZ021>025-VAZ099-100-010600-
SOUTHERN MARYLAND AND THE DELMARVA PENINSULA

CITY           SKY/WX    TMP DP  RH WIND       PRES   REMARKS
PATUXENT RIVER MOCLDY    70  66  87 CALM      29.98S
BAY BRIDGE APT CLEAR     72  68  88 CALM      29.98F
LEONARDTOWN    CLEAR     68  64  88 CALM      30.00S
DOVER          CLEAR     70  70 100 SE3       29.98S
GEORGETOWN     PTCLDY    69  67  93 CALM      29.99F
EASTON         CLEAR     71  71  99 CALM      30.02F
CAMBRIDGE        N/A     66  64  94 CALM      29.98F
SALISBURY      CLOUDY    68  66  93 CALM      29.99S
OCEAN CITY     PTCLDY    68  66  93 S5        30.00R
WALLOPS ISLAND FAIR      68  66  93 CALM      29.99F
ACCOMACK*      FAIR      64  63  94 CALM      29.99F
$$

NCZ012>017-030>032-010600-
NORTH CENTRAL AND EASTERN NORTH CAROLINA

CITY           SKY/WX    TMP DP  RH WIND       PRES   REMARKS
ROANOKE RAPIDS FAIR      68  66  94 CALM      29.98F
RALEIGH        CLOUDY    70  68  93 CALM      29.99S
ELIZABETH CITY CLEAR     69  67  93 E6        29.98S
AHOSKIE*       PTCLDY    67  65  95 CALM      29.98F
EDENTON*       MOCLDY    69  69 100 CALM      29.98F
CURRITUCK*     CLEAR     71  70  96 CALM      29.99S
KILL DEVIL HLS PTCLDY    68  68  98 CALM      29.96F
MANTEO         MOCLDY    70  70 100 E7        29.98S
CAPE HATTERAS  LGT RAIN  73  73 100 CALM      29.96F
TARBORO*       FAIR      69  67  93 CALM      29.99S
GOLDSBORO      CLOUDY    71  71 100 NE3       29.95S
WASHINGTON     PTCLDY    67  67  98 NE3       29.97S
GREENVILLE     CLOUDY    70  68  94 NE3       29.99S
NEW BERN       CLOUDY    71  69  93 NE5       29.96S
WILMINGTON     CLOUDY    74  72  93 N8        29.92F
$$

VAZ048-010600-
ELSEWHERE

CITY           SKY/WX    TMP DP  RH WIND       PRES   REMARKS
HARRISBURG PA  CLOUDY    69  62  78 CALM      29.98S
BALTIMORE      PTCLDY    66  63  90 CALM      29.98S
ANNAPOLIS      CLEAR     70  69  97 CALM      29.98F
ANDREWS AFB    FAIR      67  65  95 S3        29.99S
PHILADELPHIA   MOCLDY    72  65  78 SW6       29.99S
HENDERSON NC   CLOUDY    66  65  97 CALM      30.00S
GREENSBORO     PTCLDY    71  66  84 E5        30.00S
ROCKY MOUNT    PTCLDY    71  68  90 NE5       29.97F
$$

VAZ100-010600-
MARINE

STATION/POSITION TIME  TEMP    WIND        PRES    WAVE   SWELL
                       AIR SEA DIR/SP/G            HT/PER HT/PER
                 (UTC) (F)     (DEG/KT/KT) (MB)    (FT/S) (FT/S)
BRANDYWINE LGT   0400   70     190/ 10/ 11 1015.7F
CAPE MAY NJ      0400   68 69  150/  4/  5 1015.4F
LEWES DE         0400   71 63  180/  2/  4 1015.5F
15NM E FENWICK I 0450   68 68              1015.9R   4/ 8
OCEAN-CITY-INLET 0400   67 67  200/  3/  5 1016.0F
WACHAPREAGUE VA  0400   69 79  130/  2/  3 1015.4F
THOMAS POINT MD  0500   73 71  220/  3/  3 1016.7F
GOOSES REEF MD   0400   72 71  220/  6/  6 1016.5R
COVE POINT MD    0400   72     210/  6/  7 1016.0F
SOLOMONS ISLAND  0400   72 69  200/  3/  3   N/A
BISHOPS HEAD MD  0400   74 79  180/  6/  7 1015.5F
PINEY POINT MD   0400          210/  3/  4   N/A
POTOMAC MD       0400   73 73  210/  6/  8 1014.5F
CAMBRIDGE MD     0400   72 72  200/  2/  3 1014.6S
LEWISETTA VA     0400   72 75  210/  6/  7 1015.1F
RAPPAHANNOCK LGT 0400          140/  2/  2 1016.3F
STINGRAY PT      0400   72 72  170/  8/  8 1016.2F   0
YORK RVR RNG VA  0400   71     160/  4/  5 1015.0F
YORKTOWN VA      0400   71 71  160/  1/  2 1015.3F
JAMESTOWN VA     0400   72 77   90/  2/  4   N/A     0
DOMINION TERM VA 0400   71      60/  4/  5 1015.4F
KIPTOPEKE VA     0400      70   90/  3/  4   N/A
CHES BAY BRIDGE  0400   70 71   60/  3/  3 1015.4F
CAPE HENRY VA    0400   69      70/  2/  3   N/A
CHESAPEAKE LGHT  0400   71      60/  5/  5 1016.0F
WILLOUBY STN VA  0400   70      80/  4/  4 1016.4F
CAPE HENRY BUOY  0412      72                N/A     3/ 7
1ST LANDING BUOY 0400   69 70   80/  2/  4 1015.6F   1/ 5
CAPE CHARLES BUO 0426      71                N/A     3/ 8   2/ 8
OFFSHORE WE BUOY 0421      71                N/A     4/ 8   3/ 8
64NM E OF VA BCH 0450   73 70   90/  6/  6 1015.1R   4/ 8   3/ 8
DUCK PIER NC     0400   69 65   50/  8/  9 1014.4S
44056 DUCK FRF   0411      67                N/A     3/ 7
OREGON INLET NC  0400   71 71   40/  7/  8 1014.9R
HATTERAS NC      0400   74 76   90/  2/  3 1014.2R
DIAMOND SHLS NC  0450   79 80  170/ 14/ 17 1014.1F   4/ 8   3/ 8
CAPE LOOKOUT NC  0500   75      90/  4/  5 1013.6F
$$




USA.gov is the U.S. government's official web portal to all federal, state and local government web resources and services.